Year,Month,Day,Hour,Minute,Value (Times are PST for temperature in C)
2009,08,03,00,00,16.90
2009,08,03,00,01,16.90
2009,08,03,00,02,16.90
2009,08,03,00,03,16.90
2009,08,03,00,04,16.90
2009,08,03,00,05,16.90
2009,08,03,00,06,17.00
2009,08,03,00,07,17.00
2009,08,03,00,08,17.10
2009,08,03,00,09,17.10
2009,08,03,00,10,17.10
2009,08,03,00,11,17.10
2009,08,03,00,12,17.10
2009,08,03,00,13,17.00
2009,08,03,00,14,17.00
2009,08,03,00,15,17.00
2009,08,03,00,16,16.90
2009,08,03,00,17,16.90
2009,08,03,00,18,16.90
2009,08,03,00,19,16.80
2009,08,03,00,20,16.80
2009,08,03,00,21,16.80
2009,08,03,00,22,16.80
2009,08,03,00,23,16.80
2009,08,03,00,24,16.70
2009,08,03,00,25,16.70
2009,08,03,00,26,16.60
2009,08,03,00,27,16.50
2009,08,03,00,28,16.40
2009,08,03,00,29,16.30
2009,08,03,00,30,16.30
2009,08,03,00,31,16.20
2009,08,03,00,32,16.10
2009,08,03,00,33,16.10
2009,08,03,00,34,16.10
2009,08,03,00,35,16.10
2009,08,03,00,36,16.10
2009,08,03,00,37,16.00
2009,08,03,00,38,16.00
2009,08,03,00,39,16.00
2009,08,03,00,40,16.00
2009,08,03,00,41,16.00
2009,08,03,00,42,16.00
2009,08,03,00,43,16.00
2009,08,03,00,44,16.00
2009,08,03,00,45,16.10
2009,08,03,00,46,16.10
2009,08,03,00,47,16.10
2009,08,03,00,48,16.10
2009,08,03,00,49,16.10
2009,08,03,00,50,16.10
2009,08,03,00,51,16.20
2009,08,03,00,52,16.20
2009,08,03,00,53,16.20
2009,08,03,00,54,16.20
2009,08,03,00,55,16.20
2009,08,03,00,56,16.20
2009,08,03,00,57,16.20
2009,08,03,00,58,16.20
2009,08,03,00,59,16.20
2009,08,03,01,00,16.20
2009,08,03,01,01,16.20
2009,08,03,01,02,16.20
2009,08,03,01,03,16.20
2009,08,03,01,04,16.20
2009,08,03,01,05,16.20
2009,08,03,01,06,16.20
2009,08,03,01,07,16.20
2009,08,03,01,08,16.10
2009,08,03,01,09,16.10
2009,08,03,01,10,16.10
2009,08,03,01,11,16.10
2009,08,03,01,12,16.10
2009,08,03,01,13,16.10
2009,08,03,01,14,16.10
2009,08,03,01,15,16.10
2009,08,03,01,16,16.10
2009,08,03,01,17,16.10
2009,08,03,01,18,16.10
2009,08,03,01,19,16.10
2009,08,03,01,20,16.10
2009,08,03,01,21,16.10
2009,08,03,01,22,16.10
2009,08,03,01,23,16.10
2009,08,03,01,24,16.10
2009,08,03,01,25,16.10
2009,08,03,01,26,16.10
2009,08,03,01,27,16.00
2009,08,03,01,28,16.00
2009,08,03,01,29,16.00
2009,08,03,01,30,16.00
2009,08,03,01,31,16.00
2009,08,03,01,32,16.00
2009,08,03,01,33,15.90
2009,08,03,01,34,15.90
2009,08,03,01,35,15.90
2009,08,03,01,36,15.90
2009,08,03,01,37,15.90
2009,08,03,01,38,15.90
2009,08,03,01,39,15.90
2009,08,03,01,40,16.00
2009,08,03,01,41,16.00
2009,08,03,01,42,16.00
2009,08,03,01,43,16.00
2009,08,03,01,44,16.10
2009,08,03,01,45,16.10
2009,08,03,01,46,16.10
2009,08,03,01,47,16.10
2009,08,03,01,48,16.10
2009,08,03,01,49,16.10
2009,08,03,01,50,16.10
2009,08,03,01,51,16.10
2009,08,03,01,52,16.10
2009,08,03,01,53,16.10
2009,08,03,01,54,16.10
2009,08,03,01,55,16.10
2009,08,03,01,56,16.10
2009,08,03,01,57,16.10
2009,08,03,01,58,16.10
2009,08,03,01,59,16.10
2009,08,03,02,00,16.10
2009,08,03,02,01,16.10
2009,08,03,02,02,16.00
2009,08,03,02,03,16.00
2009,08,03,02,04,16.00
2009,08,03,02,05,15.90
2009,08,03,02,06,15.90
2009,08,03,02,07,15.80
2009,08,03,02,08,15.80
2009,08,03,02,09,15.70
2009,08,03,02,10,15.70
2009,08,03,02,11,15.60
2009,08,03,02,12,15.60
2009,08,03,02,13,15.60
2009,08,03,02,14,15.50
2009,08,03,02,15,15.50
2009,08,03,02,16,15.40
2009,08,03,02,17,15.40
2009,08,03,02,18,15.40
2009,08,03,02,19,15.30
2009,08,03,02,20,15.30
2009,08,03,02,21,15.30
2009,08,03,02,22,15.30
2009,08,03,02,23,15.20
2009,08,03,02,24,15.20
2009,08,03,02,25,15.20
2009,08,03,02,26,15.20
2009,08,03,02,27,15.20
2009,08,03,02,28,15.20
2009,08,03,02,29,15.20
2009,08,03,02,30,15.20
2009,08,03,02,31,15.10
2009,08,03,02,32,15.10
2009,08,03,02,33,15.10
2009,08,03,02,34,15.10
2009,08,03,02,35,15.10
2009,08,03,02,36,15.10
2009,08,03,02,37,15.10
2009,08,03,02,38,15.10
2009,08,03,02,39,15.10
2009,08,03,02,40,15.00
2009,08,03,02,41,15.00
2009,08,03,02,42,14.90
2009,08,03,02,43,14.90
2009,08,03,02,44,14.90
2009,08,03,02,45,14.80
2009,08,03,02,46,14.80
2009,08,03,02,47,14.80
2009,08,03,02,48,14.80
2009,08,03,02,49,14.70
2009,08,03,02,50,14.70
2009,08,03,02,51,14.70
2009,08,03,02,52,14.70
2009,08,03,02,53,14.70
2009,08,03,02,54,14.70
2009,08,03,02,55,14.70
2009,08,03,02,56,14.70
2009,08,03,02,57,14.70
2009,08,03,02,58,14.80
2009,08,03,02,59,14.80
2009,08,03,03,00,14.80
2009,08,03,03,01,14.80
2009,08,03,03,02,14.80
2009,08,03,03,03,14.80
2009,08,03,03,04,14.80
2009,08,03,03,05,14.70
2009,08,03,03,06,14.70
2009,08,03,03,07,14.70
2009,08,03,03,08,14.70
2009,08,03,03,09,14.70
2009,08,03,03,10,14.70
2009,08,03,03,11,14.60
2009,08,03,03,12,14.60
2009,08,03,03,13,14.60
2009,08,03,03,14,14.60
2009,08,03,03,15,14.60
2009,08,03,03,16,14.60
2009,08,03,03,17,14.70
2009,08,03,03,18,14.60
2009,08,03,03,19,14.60
2009,08,03,03,20,14.60
2009,08,03,03,21,14.60
2009,08,03,03,22,14.60
2009,08,03,03,23,14.50
2009,08,03,03,24,14.50
2009,08,03,03,25,14.50
2009,08,03,03,26,14.40
2009,08,03,03,27,14.40
2009,08,03,03,28,14.40
2009,08,03,03,29,14.40
2009,08,03,03,30,14.30
2009,08,03,03,31,14.30
2009,08,03,03,32,14.30
2009,08,03,03,33,14.30
2009,08,03,03,34,14.30
2009,08,03,03,35,14.20
2009,08,03,03,36,14.20
2009,08,03,03,37,14.20
2009,08,03,03,38,14.20
2009,08,03,03,39,14.20
2009,08,03,03,40,14.20
2009,08,03,03,41,14.20
2009,08,03,03,42,14.20
2009,08,03,03,43,14.20
2009,08,03,03,44,14.20
2009,08,03,03,45,14.20
2009,08,03,03,46,14.20
2009,08,03,03,47,14.10
2009,08,03,03,48,14.10
2009,08,03,03,49,14.10
2009,08,03,03,50,14.10
2009,08,03,03,51,14.10
2009,08,03,03,52,14.10
2009,08,03,03,53,14.10
2009,08,03,03,54,14.10
2009,08,03,03,55,14.10
2009,08,03,03,56,14.10
2009,08,03,03,57,14.10
2009,08,03,03,58,14.10
2009,08,03,03,59,14.10
2009,08,03,04,00,14.10
2009,08,03,04,01,14.10
2009,08,03,04,02,14.00
2009,08,03,04,03,14.00
2009,08,03,04,04,14.00
2009,08,03,04,05,14.00
2009,08,03,04,06,14.00
2009,08,03,04,07,14.00
2009,08,03,04,08,14.00
2009,08,03,04,09,14.00
2009,08,03,04,10,13.90
2009,08,03,04,11,13.90
2009,08,03,04,12,13.90
2009,08,03,04,13,13.90
2009,08,03,04,14,13.80
2009,08,03,04,15,13.80
2009,08,03,04,16,13.80
2009,08,03,04,17,13.80
2009,08,03,04,18,13.70
2009,08,03,04,19,13.70
2009,08,03,04,20,13.70
2009,08,03,04,21,13.60
2009,08,03,04,22,13.60
2009,08,03,04,23,13.60
2009,08,03,04,24,13.60
2009,08,03,04,25,13.60
2009,08,03,04,26,13.60
2009,08,03,04,27,13.50
2009,08,03,04,28,13.50
2009,08,03,04,29,13.50
2009,08,03,04,30,13.50
2009,08,03,04,31,13.50
2009,08,03,04,32,13.40
2009,08,03,04,33,13.40
2009,08,03,04,34,13.40
2009,08,03,04,35,13.40
2009,08,03,04,36,13.40
2009,08,03,04,37,13.40
2009,08,03,04,38,13.40
2009,08,03,04,39,13.40
2009,08,03,04,40,13.40
2009,08,03,04,41,13.40
2009,08,03,04,42,13.40
2009,08,03,04,43,13.40
2009,08,03,04,44,13.30
2009,08,03,04,45,13.30
2009,08,03,04,46,13.30
2009,08,03,04,47,13.30
2009,08,03,04,48,13.40
2009,08,03,04,49,13.40
2009,08,03,04,50,13.40
2009,08,03,04,51,13.40
2009,08,03,04,52,13.50
2009,08,03,04,53,13.50
2009,08,03,04,54,13.50
2009,08,03,04,55,13.50
2009,08,03,04,56,13.60
2009,08,03,04,57,13.60
2009,08,03,04,58,13.60
2009,08,03,04,59,13.60
2009,08,03,05,00,13.60
2009,08,03,05,01,13.60
2009,08,03,05,02,13.60
2009,08,03,05,03,13.60
2009,08,03,05,04,13.60
2009,08,03,05,05,13.60
2009,08,03,05,06,13.60
2009,08,03,05,07,13.50
2009,08,03,05,08,13.50
2009,08,03,05,09,13.50
2009,08,03,05,10,13.40
2009,08,03,05,11,13.40
2009,08,03,05,12,13.30
2009,08,03,05,13,13.30
2009,08,03,05,14,13.20
2009,08,03,05,15,13.10
2009,08,03,05,16,13.00
2009,08,03,05,17,12.90
2009,08,03,05,18,12.80
2009,08,03,05,19,12.70
2009,08,03,05,20,12.70
2009,08,03,05,21,12.60
2009,08,03,05,22,12.50
2009,08,03,05,23,12.50
2009,08,03,05,24,12.40
2009,08,03,05,25,12.30
2009,08,03,05,26,12.30
2009,08,03,05,27,12.20
2009,08,03,05,28,12.10
2009,08,03,05,29,12.10
2009,08,03,05,30,12.00
2009,08,03,05,31,12.00
2009,08,03,05,32,11.90
2009,08,03,05,33,11.90
2009,08,03,05,34,11.80
2009,08,03,05,35,11.70
2009,08,03,05,36,11.70
2009,08,03,05,37,11.60
2009,08,03,05,38,11.60
2009,08,03,05,39,11.60
2009,08,03,05,40,11.50
2009,08,03,05,41,11.50
2009,08,03,05,42,11.50
2009,08,03,05,43,11.40
2009,08,03,05,44,11.40
2009,08,03,05,45,11.40
2009,08,03,05,46,11.40
2009,08,03,05,47,11.40
2009,08,03,05,48,11.40
2009,08,03,05,49,11.30
2009,08,03,05,50,11.30
2009,08,03,05,51,11.30
2009,08,03,05,52,11.30
2009,08,03,05,53,11.30
2009,08,03,05,54,11.30
2009,08,03,05,55,11.30
2009,08,03,05,56,11.30
2009,08,03,05,57,11.30
2009,08,03,05,58,11.30
2009,08,03,05,59,11.30
2009,08,03,06,00,11.30
2009,08,03,06,01,11.30
2009,08,03,06,02,11.30
2009,08,03,06,03,11.30
2009,08,03,06,04,11.30
2009,08,03,06,05,11.30
2009,08,03,06,06,11.30
2009,08,03,06,07,11.30
2009,08,03,06,08,11.30
2009,08,03,06,09,11.30
2009,08,03,06,10,11.20
2009,08,03,06,11,11.20
2009,08,03,06,12,11.20
2009,08,03,06,13,11.20
2009,08,03,06,14,11.20
2009,08,03,06,15,11.20
2009,08,03,06,16,11.20
2009,08,03,06,17,11.20
2009,08,03,06,18,11.20
2009,08,03,06,19,11.30
2009,08,03,06,20,11.30
2009,08,03,06,21,11.30
2009,08,03,06,22,11.30
2009,08,03,06,23,11.30
2009,08,03,06,24,11.30
2009,08,03,06,25,11.30
2009,08,03,06,26,11.30
2009,08,03,06,27,11.30
2009,08,03,06,28,11.30
2009,08,03,06,29,11.40
2009,08,03,06,30,11.40
2009,08,03,06,31,11.40
2009,08,03,06,32,11.40
2009,08,03,06,33,11.40
2009,08,03,06,34,11.40
2009,08,03,06,35,11.50
2009,08,03,06,36,11.50
2009,08,03,06,37,11.50
2009,08,03,06,38,11.50
2009,08,03,06,39,11.60
2009,08,03,06,40,11.60
2009,08,03,06,41,11.60
2009,08,03,06,42,11.60
2009,08,03,06,43,11.70
2009,08,03,06,44,11.70
2009,08,03,06,45,11.70
2009,08,03,06,46,11.70
2009,08,03,06,47,11.70
2009,08,03,06,48,11.80
2009,08,03,06,49,11.80
2009,08,03,06,50,11.80
2009,08,03,06,51,11.80
2009,08,03,06,52,11.90
2009,08,03,06,53,11.90
2009,08,03,06,54,11.90
2009,08,03,06,55,12.00
2009,08,03,06,56,12.00
2009,08,03,06,57,12.10
2009,08,03,06,58,12.10
2009,08,03,06,59,12.10
2009,08,03,07,00,12.20
2009,08,03,07,01,12.20
2009,08,03,07,02,12.20
2009,08,03,07,03,12.30
2009,08,03,07,04,12.30
2009,08,03,07,05,12.40
2009,08,03,07,06,12.40
2009,08,03,07,07,12.50
2009,08,03,07,08,12.50
2009,08,03,07,09,12.60
2009,08,03,07,10,12.60
2009,08,03,07,11,12.70
2009,08,03,07,12,12.80
2009,08,03,07,13,12.80
2009,08,03,07,14,12.90
2009,08,03,07,15,12.90
2009,08,03,07,16,12.90
2009,08,03,07,17,13.00
2009,08,03,07,18,13.00
2009,08,03,07,19,13.10
2009,08,03,07,20,13.10
2009,08,03,07,21,13.10
2009,08,03,07,22,13.10
2009,08,03,07,23,13.10
2009,08,03,07,24,13.20
2009,08,03,07,25,13.20
2009,08,03,07,26,13.20
2009,08,03,07,27,13.30
2009,08,03,07,28,13.30
2009,08,03,07,29,13.30
2009,08,03,07,30,13.30
2009,08,03,07,31,13.30
2009,08,03,07,32,13.30
2009,08,03,07,33,13.30
2009,08,03,07,34,13.20
2009,08,03,07,35,13.20
2009,08,03,07,36,13.10
2009,08,03,07,37,13.20
2009,08,03,07,38,13.20
2009,08,03,07,39,13.20
2009,08,03,07,40,13.20
2009,08,03,07,41,13.20
2009,08,03,07,42,13.30
2009,08,03,07,43,13.30
2009,08,03,07,44,13.30
2009,08,03,07,45,13.40
2009,08,03,07,46,13.40
2009,08,03,07,47,13.40
2009,08,03,07,48,13.40
2009,08,03,07,49,13.40
2009,08,03,07,50,13.40
2009,08,03,07,51,13.40
2009,08,03,07,52,13.40
2009,08,03,07,53,13.40
2009,08,03,07,54,13.40
2009,08,03,07,55,13.40
2009,08,03,07,56,13.40
2009,08,03,07,57,13.40
2009,08,03,07,58,13.30
2009,08,03,07,59,13.30
2009,08,03,08,00,13.20
2009,08,03,08,01,13.20
2009,08,03,08,02,13.20
2009,08,03,08,03,13.20
2009,08,03,08,04,13.20
2009,08,03,08,05,13.20
2009,08,03,08,06,13.30
2009,08,03,08,07,13.30
2009,08,03,08,08,13.30
2009,08,03,08,09,13.30
2009,08,03,08,10,13.30
2009,08,03,08,11,13.30
2009,08,03,08,12,13.30
2009,08,03,08,13,13.30
2009,08,03,08,14,13.30
2009,08,03,08,15,13.30
2009,08,03,08,16,13.40
2009,08,03,08,17,13.50
2009,08,03,08,18,13.50
2009,08,03,08,19,13.60
2009,08,03,08,20,13.60
2009,08,03,08,21,13.60
2009,08,03,08,22,13.60
2009,08,03,08,23,13.60
2009,08,03,08,24,13.60
2009,08,03,08,25,13.60
2009,08,03,08,26,13.60
2009,08,03,08,27,13.60
2009,08,03,08,28,13.70
2009,08,03,08,29,13.70
2009,08,03,08,30,13.80
2009,08,03,08,31,13.90
2009,08,03,08,32,14.00
2009,08,03,08,33,14.00
2009,08,03,08,34,14.10
2009,08,03,08,35,14.10
2009,08,03,08,36,14.20
2009,08,03,08,37,14.20
2009,08,03,08,38,14.20
2009,08,03,08,39,14.20
2009,08,03,08,40,14.30
2009,08,03,08,41,14.40
2009,08,03,08,42,14.40
2009,08,03,08,43,14.40
2009,08,03,08,44,14.40
2009,08,03,08,45,14.50
2009,08,03,08,46,14.50
2009,08,03,08,47,14.60
2009,08,03,08,48,14.60
2009,08,03,08,49,14.70
2009,08,03,08,50,14.70
2009,08,03,08,51,14.70
2009,08,03,08,52,14.80
2009,08,03,08,53,14.80
2009,08,03,08,54,14.90
2009,08,03,08,55,14.90
2009,08,03,08,56,14.90
2009,08,03,08,57,14.90
2009,08,03,08,58,15.00
2009,08,03,08,59,15.00
2009,08,03,09,00,15.00
2009,08,03,09,01,15.00
2009,08,03,09,02,15.10
2009,08,03,09,03,15.20
2009,08,03,09,04,15.20
2009,08,03,09,05,15.20
2009,08,03,09,06,15.20
2009,08,03,09,07,15.30
2009,08,03,09,08,15.30
2009,08,03,09,09,15.30
2009,08,03,09,10,15.30
2009,08,03,09,11,15.30
2009,08,03,09,12,15.40
2009,08,03,09,13,15.40
2009,08,03,09,14,15.50
2009,08,03,09,15,15.50
2009,08,03,09,16,15.60
2009,08,03,09,17,15.70
2009,08,03,09,18,15.70
2009,08,03,09,19,15.80
2009,08,03,09,20,15.90
2009,08,03,09,21,16.00
2009,08,03,09,22,16.00
2009,08,03,09,23,16.10
2009,08,03,09,24,16.20
2009,08,03,09,25,16.20
2009,08,03,09,26,16.30
2009,08,03,09,27,16.30
2009,08,03,09,28,16.30
2009,08,03,09,29,16.30
2009,08,03,09,30,16.20
2009,08,03,09,31,16.20
2009,08,03,09,32,16.20
2009,08,03,09,33,16.20
2009,08,03,09,34,16.20
2009,08,03,09,35,16.20
2009,08,03,09,36,16.20
2009,08,03,09,37,16.20
2009,08,03,09,38,16.20
2009,08,03,09,39,16.20
2009,08,03,09,40,16.20
2009,08,03,09,41,16.20
2009,08,03,09,42,16.30
2009,08,03,09,43,16.30
2009,08,03,09,44,16.30
2009,08,03,09,45,16.30
2009,08,03,09,46,16.40
2009,08,03,09,47,16.50
2009,08,03,09,48,16.50
2009,08,03,09,49,16.50
2009,08,03,09,50,16.60
2009,08,03,09,51,16.60
2009,08,03,09,52,16.70
2009,08,03,09,53,16.70
2009,08,03,09,54,16.80
2009,08,03,09,55,16.90
2009,08,03,09,56,16.90
2009,08,03,09,57,16.90
2009,08,03,09,58,16.90
2009,08,03,09,59,16.90
2009,08,03,10,00,16.90
2009,08,03,10,01,16.90
2009,08,03,10,02,16.90
2009,08,03,10,03,17.00
2009,08,03,10,04,17.00
2009,08,03,10,05,17.10
2009,08,03,10,06,17.20
2009,08,03,10,07,17.20
2009,08,03,10,08,17.30
2009,08,03,10,09,17.40
2009,08,03,10,10,17.60
2009,08,03,10,11,17.70
2009,08,03,10,12,17.80
2009,08,03,10,13,17.90
2009,08,03,10,14,18.00
2009,08,03,10,15,18.10
2009,08,03,10,16,18.20
2009,08,03,10,17,18.20
2009,08,03,10,18,18.20
2009,08,03,10,19,18.30
2009,08,03,10,20,18.30
2009,08,03,10,21,18.30
2009,08,03,10,22,18.30
2009,08,03,10,23,18.30
2009,08,03,10,24,18.20
2009,08,03,10,25,18.20
2009,08,03,10,26,18.20
2009,08,03,10,27,18.20
2009,08,03,10,28,18.20
2009,08,03,10,29,18.20
2009,08,03,10,30,18.20
2009,08,03,10,31,18.30
2009,08,03,10,32,18.40
2009,08,03,10,33,18.50
2009,08,03,10,34,18.70
2009,08,03,10,35,18.80
2009,08,03,10,36,19.00
2009,08,03,10,37,19.10
2009,08,03,10,38,19.20
2009,08,03,10,39,19.20
2009,08,03,10,40,19.20
2009,08,03,10,41,19.30
2009,08,03,10,42,19.30
2009,08,03,10,43,19.30
2009,08,03,10,44,19.30
2009,08,03,10,45,19.30
2009,08,03,10,46,19.30
2009,08,03,10,47,19.20
2009,08,03,10,48,19.10
2009,08,03,10,49,19.10
2009,08,03,10,50,19.00
2009,08,03,10,51,18.90
2009,08,03,10,52,18.90
2009,08,03,10,53,18.90
2009,08,03,10,54,18.90
2009,08,03,10,55,18.90
2009,08,03,10,56,18.80
2009,08,03,10,57,18.70
2009,08,03,10,58,18.60
2009,08,03,10,59,18.50
2009,08,03,11,00,18.50
2009,08,03,11,01,18.50
2009,08,03,11,02,18.50
2009,08,03,11,03,18.60
2009,08,03,11,04,18.60
2009,08,03,11,05,18.70
2009,08,03,11,06,18.70
2009,08,03,11,07,18.70
2009,08,03,11,08,18.80
2009,08,03,11,09,18.80
2009,08,03,11,10,18.80
2009,08,03,11,11,18.80
2009,08,03,11,12,18.80
2009,08,03,11,13,18.80
2009,08,03,11,14,18.90
2009,08,03,11,15,19.00
2009,08,03,11,16,19.00
2009,08,03,11,17,19.10
2009,08,03,11,18,19.20
2009,08,03,11,19,19.30
2009,08,03,11,20,19.30
2009,08,03,11,21,19.20
2009,08,03,11,22,19.20
2009,08,03,11,23,19.20
2009,08,03,11,24,19.10
2009,08,03,11,25,19.00
2009,08,03,11,26,18.90
2009,08,03,11,27,18.80
2009,08,03,11,28,18.80
2009,08,03,11,29,18.70
2009,08,03,11,30,18.70
2009,08,03,11,31,18.70
2009,08,03,11,32,18.70
2009,08,03,11,33,18.80
2009,08,03,11,34,18.80
2009,08,03,11,35,18.80
2009,08,03,11,36,18.90
2009,08,03,11,37,18.90
2009,08,03,11,38,18.90
2009,08,03,11,39,18.90
2009,08,03,11,40,19.00
2009,08,03,11,41,19.00
2009,08,03,11,42,19.10
2009,08,03,11,43,19.20
2009,08,03,11,44,19.30
2009,08,03,11,45,19.40
2009,08,03,11,46,19.50
2009,08,03,11,47,19.60
2009,08,03,11,48,19.60
2009,08,03,11,49,19.70
2009,08,03,11,50,19.70
2009,08,03,11,51,19.80
2009,08,03,11,52,19.90
2009,08,03,11,53,19.90
2009,08,03,11,54,20.00
2009,08,03,11,55,20.10
2009,08,03,11,56,20.10
2009,08,03,11,57,20.10
2009,08,03,11,58,20.10
2009,08,03,11,59,20.10
2009,08,03,12,00,20.10
2009,08,03,12,01,20.00
2009,08,03,12,02,19.90
2009,08,03,12,03,19.80
2009,08,03,12,04,19.80
2009,08,03,12,05,19.90
2009,08,03,12,06,19.90
2009,08,03,12,07,19.90
2009,08,03,12,08,19.90
2009,08,03,12,09,19.90
2009,08,03,12,10,20.00
2009,08,03,12,11,20.00
2009,08,03,12,12,19.90
2009,08,03,12,13,19.80
2009,08,03,12,14,19.70
2009,08,03,12,15,19.70
2009,08,03,12,16,19.60
2009,08,03,12,17,19.50
2009,08,03,12,18,19.40
2009,08,03,12,19,19.40
2009,08,03,12,20,19.40
2009,08,03,12,21,19.50
2009,08,03,12,22,19.50
2009,08,03,12,23,19.60
2009,08,03,12,24,19.50
2009,08,03,12,25,19.40
2009,08,03,12,26,19.30
2009,08,03,12,27,19.30
2009,08,03,12,28,19.20
2009,08,03,12,29,19.20
2009,08,03,12,30,19.20
2009,08,03,12,31,19.20
2009,08,03,12,32,19.20
2009,08,03,12,33,19.10
2009,08,03,12,34,19.00
2009,08,03,12,35,19.00
2009,08,03,12,36,19.00
2009,08,03,12,37,19.10
2009,08,03,12,38,19.10
2009,08,03,12,39,19.10
2009,08,03,12,40,19.10
2009,08,03,12,41,19.10
2009,08,03,12,42,19.00
2009,08,03,12,43,19.00
2009,08,03,12,44,19.10
2009,08,03,12,45,19.10
2009,08,03,12,46,19.20
2009,08,03,12,47,19.20
2009,08,03,12,48,19.20
2009,08,03,12,49,19.20
2009,08,03,12,50,19.20
2009,08,03,12,51,19.20
2009,08,03,12,52,19.30
2009,08,03,12,53,19.40
2009,08,03,12,54,19.50
2009,08,03,12,55,19.60
2009,08,03,12,56,19.60
2009,08,03,12,57,19.60
2009,08,03,12,58,19.60
2009,08,03,12,59,19.60
2009,08,03,13,00,19.70
2009,08,03,13,01,19.80
2009,08,03,13,02,19.90
2009,08,03,13,03,20.00
2009,08,03,13,04,20.00
2009,08,03,13,05,20.00
2009,08,03,13,06,20.00
2009,08,03,13,07,20.00
2009,08,03,13,08,20.10
2009,08,03,13,09,20.10
2009,08,03,13,10,20.20
2009,08,03,13,11,20.30
2009,08,03,13,12,20.40
2009,08,03,13,13,20.40
2009,08,03,13,14,20.50
2009,08,03,13,15,20.50
2009,08,03,13,16,20.60
2009,08,03,13,17,20.60
2009,08,03,13,18,20.60
2009,08,03,13,19,20.60
2009,08,03,13,20,20.60
2009,08,03,13,21,20.50
2009,08,03,13,22,20.50
2009,08,03,13,23,20.50
2009,08,03,13,24,20.50
2009,08,03,13,25,20.60
2009,08,03,13,26,20.60
2009,08,03,13,27,20.50
2009,08,03,13,28,20.50
2009,08,03,13,29,20.50
2009,08,03,13,30,20.60
2009,08,03,13,31,20.60
2009,08,03,13,32,20.60
2009,08,03,13,33,20.60
2009,08,03,13,34,20.70
2009,08,03,13,35,20.80
2009,08,03,13,36,20.80
2009,08,03,13,37,20.80
2009,08,03,13,38,20.90
2009,08,03,13,39,20.90
2009,08,03,13,40,21.00
2009,08,03,13,41,21.10
2009,08,03,13,42,21.20
2009,08,03,13,43,21.30
2009,08,03,13,44,21.40
2009,08,03,13,45,21.40
2009,08,03,13,46,21.50
2009,08,03,13,47,21.50
2009,08,03,13,48,21.60
2009,08,03,13,49,21.80
2009,08,03,13,50,21.80
2009,08,03,13,51,21.80
2009,08,03,13,52,21.80
2009,08,03,13,53,21.90
2009,08,03,13,54,21.90
2009,08,03,13,55,22.10
2009,08,03,13,56,22.20
2009,08,03,13,57,22.30
2009,08,03,13,58,22.40
2009,08,03,13,59,22.50
2009,08,03,14,00,22.50
2009,08,03,14,01,22.50
2009,08,03,14,02,22.50
2009,08,03,14,03,22.60
2009,08,03,14,04,22.70
2009,08,03,14,05,22.70
2009,08,03,14,06,22.90
2009,08,03,14,07,23.00
2009,08,03,14,08,23.10
2009,08,03,14,09,23.20
2009,08,03,14,10,23.20
2009,08,03,14,11,23.20
2009,08,03,14,12,23.20
2009,08,03,14,13,23.30
2009,08,03,14,14,23.40
2009,08,03,14,15,23.50
2009,08,03,14,16,23.60
2009,08,03,14,17,23.60
2009,08,03,14,18,23.60
2009,08,03,14,19,23.60
2009,08,03,14,20,23.50
2009,08,03,14,21,23.50
2009,08,03,14,22,23.40
2009,08,03,14,23,23.50
2009,08,03,14,24,23.50
2009,08,03,14,25,23.60
2009,08,03,14,26,23.60
2009,08,03,14,27,23.60
2009,08,03,14,28,23.50
2009,08,03,14,29,23.40
2009,08,03,14,30,23.30
2009,08,03,14,31,23.20
2009,08,03,14,32,23.20
2009,08,03,14,33,23.30
2009,08,03,14,34,23.30
2009,08,03,14,35,23.30
2009,08,03,14,36,23.20
2009,08,03,14,37,23.10
2009,08,03,14,38,23.00
2009,08,03,14,39,22.90
2009,08,03,14,40,22.80
2009,08,03,14,41,22.80
2009,08,03,14,42,22.90
2009,08,03,14,43,22.90
2009,08,03,14,44,22.80
2009,08,03,14,45,22.70
2009,08,03,14,46,22.70
2009,08,03,14,47,22.70
2009,08,03,14,48,22.70
2009,08,03,14,49,22.70
2009,08,03,14,50,22.70
2009,08,03,14,51,22.70
2009,08,03,14,52,22.70
2009,08,03,14,53,22.70
2009,08,03,14,54,22.80
2009,08,03,14,55,22.90
2009,08,03,14,56,22.90
2009,08,03,14,57,22.90
2009,08,03,14,58,22.90
2009,08,03,14,59,22.90
2009,08,03,15,00,22.80
2009,08,03,15,01,22.80
2009,08,03,15,02,22.80
2009,08,03,15,03,22.70
2009,08,03,15,04,22.80
2009,08,03,15,05,22.90
2009,08,03,15,06,23.00
2009,08,03,15,07,23.10
2009,08,03,15,08,23.10
2009,08,03,15,09,23.10
2009,08,03,15,10,23.00
2009,08,03,15,11,23.10
2009,08,03,15,12,23.10
2009,08,03,15,13,23.20
2009,08,03,15,14,23.30
2009,08,03,15,15,23.30
2009,08,03,15,16,23.40
2009,08,03,15,17,23.40
2009,08,03,15,18,23.40
2009,08,03,15,19,23.40
2009,08,03,15,20,23.50
2009,08,03,15,21,23.50
2009,08,03,15,22,23.60
2009,08,03,15,23,23.60
2009,08,03,15,24,23.60
2009,08,03,15,25,23.60
2009,08,03,15,26,23.60
2009,08,03,15,27,23.60
2009,08,03,15,28,23.60
2009,08,03,15,29,23.50
2009,08,03,15,30,23.50
2009,08,03,15,31,23.50
2009,08,03,15,32,23.60
2009,08,03,15,33,23.70
2009,08,03,15,34,23.70
2009,08,03,15,35,23.80
2009,08,03,15,36,23.80
2009,08,03,15,37,23.80
2009,08,03,15,38,23.90
2009,08,03,15,39,23.90
2009,08,03,15,40,23.80
2009,08,03,15,41,23.80
2009,08,03,15,42,23.80
2009,08,03,15,43,23.80
2009,08,03,15,44,23.90
2009,08,03,15,45,23.90
2009,08,03,15,46,24.00
2009,08,03,15,47,24.10
2009,08,03,15,48,24.30
2009,08,03,15,49,24.40
2009,08,03,15,50,24.40
2009,08,03,15,51,24.40
2009,08,03,15,52,24.30
2009,08,03,15,53,24.30
2009,08,03,15,54,24.30
2009,08,03,15,55,24.30
2009,08,03,15,56,24.30
2009,08,03,15,57,24.50
2009,08,03,15,58,24.50
2009,08,03,15,59,24.60
2009,08,03,16,00,24.60
2009,08,03,16,01,24.70
2009,08,03,16,02,24.70
2009,08,03,16,03,24.70
2009,08,03,16,04,24.70
2009,08,03,16,05,24.60
2009,08,03,16,06,24.50
2009,08,03,16,07,24.40
2009,08,03,16,08,24.50
2009,08,03,16,09,24.60
2009,08,03,16,10,24.70
2009,08,03,16,11,24.80
2009,08,03,16,12,24.90
2009,08,03,16,13,25.00
2009,08,03,16,14,25.20
2009,08,03,16,15,25.30
2009,08,03,16,16,25.40
2009,08,03,16,17,25.40
2009,08,03,16,18,25.40
2009,08,03,16,19,25.40
2009,08,03,16,20,25.40
2009,08,03,16,21,25.40
2009,08,03,16,22,25.40
2009,08,03,16,23,25.40
2009,08,03,16,24,25.30
2009,08,03,16,25,25.30
2009,08,03,16,26,25.30
2009,08,03,16,27,25.20
2009,08,03,16,28,25.20
2009,08,03,16,29,25.10
2009,08,03,16,30,25.00
2009,08,03,16,31,25.00
2009,08,03,16,32,24.90
2009,08,03,16,33,24.90
2009,08,03,16,34,24.80
2009,08,03,16,35,24.80
2009,08,03,16,36,24.90
2009,08,03,16,37,24.90
2009,08,03,16,38,25.00
2009,08,03,16,39,25.10
2009,08,03,16,40,25.20
2009,08,03,16,41,25.20
2009,08,03,16,42,25.20
2009,08,03,16,43,25.10
2009,08,03,16,44,25.10
2009,08,03,16,45,25.10
2009,08,03,16,46,25.20
2009,08,03,16,47,25.20
2009,08,03,16,48,25.30
2009,08,03,16,49,25.30
2009,08,03,16,50,25.40
2009,08,03,16,51,25.40
2009,08,03,16,52,25.50
2009,08,03,16,53,25.60
2009,08,03,16,54,25.60
2009,08,03,16,55,25.60
2009,08,03,16,56,25.60
2009,08,03,16,57,25.50
2009,08,03,16,58,25.40
2009,08,03,16,59,25.30
2009,08,03,17,00,25.20
2009,08,03,17,01,25.10
2009,08,03,17,02,25.10
2009,08,03,17,03,25.00
2009,08,03,17,04,25.00
2009,08,03,17,05,25.00
2009,08,03,17,06,25.10
2009,08,03,17,07,25.20
2009,08,03,17,08,25.40
2009,08,03,17,09,25.50
2009,08,03,17,10,25.70
2009,08,03,17,11,25.70
2009,08,03,17,12,25.80
2009,08,03,17,13,25.80
2009,08,03,17,14,25.90
2009,08,03,17,15,25.90
2009,08,03,17,16,25.90
2009,08,03,17,17,25.90
2009,08,03,17,18,25.90
2009,08,03,17,19,25.80